NOAA 16 DEB, 41243

Orbit data source: Space-Track

NOAA 16 DEB, 41243 is space debris in SSO originally from a launch on Thu, 21 Sep 2000 UTC launched from the Air Force Western Test Range (AFWTR). Debris objects in space refer to the collection of defunct objects orbiting the Earth. Examples of debris include non-operational satellites, rocket bodies, and fragments generated from explosions, collisions, or faulty payload assembly.

Loading next visibility...
Identifier
41243, 2000-055ET
Orbit
SSO
Country
Flag of USUS
Related business
Manufacturer
Unknown
Mission
Spacecraft
Bus & Motor
Unknown
Mass
Unknown
Launch date (UTC)
2000-09-21 (25 years ago)
Launch vehicle
Unknown
Launch site
Air Force Western Test Range (AFWTR)
Object type
Payload
Rocket body
Debris
Shape & HBR
Unknown shape, 0.1 m
Radar Cross Section
Small (<0.1 m²)

Expand to show TLE details & history
Last TLE update: 3 days ago

TLE from 3 days ago
0 NOAA 16 DEB
1 41243U 00055ET  25293.94897915  .00006024  00000-0  25183-2 0  9990
2 41243  98.7377  12.7942 0002772  59.8794 300.2661 14.26471463506010
Epoch: 2025-10-20T22:46Z
TLE epoch observation values (Epoch: 2025-10-20T22:46:31.798Z)
Latitude
0.00003°
Longitude
1.51775°
Altitude
805.469 km
Speed
7.451 km/s
True Right ascension
00h 51m 10s
True Declination
0° 00' 00"
Sunlit
Object was in full shadow at epoch
Visualization orbit readout
Latitude
Unknown
Longitude
Unknown
Altitude
Unknown
Speed
Unknown
Apparent Right ascension
Unknown
Apparent Declination
Unknown
Sunlit
N/A
Visualization observer readout
Local Sidereal Time
15:03:22
Azimuth
Unknown
Elevation
Unknown
Doppler factor
Unknown
Orbital elements
Apogee altitude
802.691 km
Perigee altitude
798.711 km
Semi-major axis
7,178.838 km
Eccentricity
0.00028
Inclination
98.7377°
RAAN
12.7942°
Arg. of periapsis
59.8794°
True anomaly
300.23866°
Mean anomaly
300.2661°
Eccentric anomaly
300.25238°
Mean motion
3.5683 °/min
Orbital period
100.89 mins
BSTAR
0.0025183
Loading maneuver chart data...
Computing Atmospheric mass density...

Documentation

Showing up to 5 results
|